Theta_e
328 340 339 332 331 332 333 333 334 348 348 350 352 355 356 350 349 353 351 349 350 350 349 348 347 348 349 349 348 347 346 348 350 351 352 352 351 352 350 349 347 348 349 349
337 342 333 328 329 329 331 331 340 348 348 349 349 349 346 344 349 347 349 347 348 348 349 345 346 347 348 350 349 349 347 349 350 350 352 352 351 351 351 349 346 348 349 349
342 336 326 328 328 328 331 330 343 350 345 341 344 349 345 341 344 346 345 347 343 342 344 344 344 347 348 349 349 347 347 348 349 351 350 350 348 350 352 351 352 351 349 349
335 326 327 333 331 327 328 326 334 350 350 349 340 344 345 343 351 353 353 351 347 343 345 344 346 349 348 348 349 347 347 347 347 347 348 350 352 352 352 350 349 348 347 348
332 328 329 327 328 327 327 333 344 346 345 345 344 346 344 344 356 354 347 352 350 340 344 343 346 347 351 348 348 346 347 345 347 346 346 350 353 352 351 351 351 349 349 347
326 322 323 325 324 325 328 334 335 335 337 343 341 343 341 346 355 349 349 350 348 347 339 350 351 350 350 351 350 346 347 348 347 347 347 346 351 352 352 353 351 350 350 350
325 325 323 323 325 322 325 331 335 338 341 336 342 342 340 337 343 346 352 355 353 351 348 353 353 352 352 351 352 351 350 351 348 349 350 342 345 351 351 351 350 351 351 351
326 327 324 322 326 326 325 326 329 331 330 332 346 345 344 342 347 348 354 354 345 351 352 352 350 350 351 351 351 351 352 353 353 352 348 349 350 352 351 351 351 349 352 351
326 327 321 323 322 324 324 326 326 335 341 340 347 346 343 344 350 352 355 357 352 352 352 349 347 347 348 348 348 349 349 347 347 348 344 341 338 339 341 345 347 348 348 347
324 327 323 329 330 331 324 329 333 338 341 338 345 350 348 350 350 356 356 359 354 352 348 345 343 342 341 340 339 339 338 336 336 337 336 334 334 334 335 336 339 342 344 346
321 323 324 331 336 333 332 337 337 340 340 341 340 339 347 348 347 357 355 356 356 348 345 343 339 336 334 333 333 333 333 332 331 330 329 329 330 330 331 332 331 333 337 340
321 324 326 330 336 335 335 337 337 331 350 346 342 340 343 345 345 354 353 354 351 345 341 338 337 334 332 332 332 332 330 329 328 329 329 329 326 328 329 329 329 328 329 333
323 328 337 339 336 334 339 339 335 336 339 348 343 339 345 344 348 352 353 351 348 344 340 337 335 333 333 333 331 329 328 328 327 326 327 327 327 326 325 325 325 326 326 327
324 328 327 328 333 339 342 340 337 339 342 347 345 342 343 346 349 351 351 347 346 343 340 338 335 332 334 332 330 329 327 326 325 324 325 325 324 323 322 322 323 323 324 325
326 331 334 338 337 336 338 339 338 340 340 341 338 342 340 345 348 350 348 346 344 342 339 336 335 334 333 332 330 328 326 324 323 324 323 322 322 322 322 322 322 322 323 323
333 342 339 340 339 338 338 338 339 339 339 339 339 340 338 339 346 347 346 345 343 341 338 334 334 333 331 330 329 326 324 322 322 322 321 321 321 321 321 321 321 322 322 323
340 340 340 342 342 339 341 340 339 339 338 339 341 339 341 342 345 346 345 344 343 341 337 333 333 332 330 329 326 324 322 321 321 321 321 321 321 321 321 321 321 322 322 323
341 343 341 345 342 344 338 332 336 338 338 338 339 340 342 341 342 343 342 342 342 339 335 333 331 329 327 324 322 321 320 321 320 320 320 320 320 321 321 320 320 322 322 323
335 340 342 347 344 339 336 337 338 339 336 337 339 341 342 339 338 338 338 338 340 337 333 331 329 326 324 322 321 320 320 320 320 319 319 320 320 321 320 320 320 322 323 323
331 335 339 342 340 340 339 332 333 335 337 334 338 341 341 339 346 343 334 334 334 333 329 328 325 323 322 320 320 320 319 319 319 318 318 320 320 321 320 321 321 321 322 323
338 338 338 339 339 335 333 331 331 340 339 336 337 340 340 343 340 335 332 332 330 328 327 325 323 323 322 320 318 317 317 318 316 316 317 319 320 320 320 320 323 323 324 325
340 340 339 336 340 339 332 332 337 339 334 336 336 336 336 332 332 332 331 330 327 326 324 323 323 322 320 318 317 317 318 317 317 317 318 318 320 320 319 320 322 323 321 321
336 335 338 338 339 335 334 336 334 331 336 335 335 333 333 332 331 330 330 328 326 325 323 323 323 321 319 317 316 317 317 317 317 318 319 319 320 319 319 320 321 319 318 319
332 331 340 340 338 337 335 332 331 331 334 332 332 331 331 332 329 329 327 326 325 324 324 322 321 319 318 316 316 316 316 317 317 318 318 318 318 317 319 317 319 316 314 317
331 334 338 339 337 335 334 333 332 330 330 330 330 329 329 329 328 327 326 326 325 324 323 321 320 319 317 316 316 316 315 316 315 316 316 315 316 316 316 317 317 315 313 311
330 338 337 334 336 339 338 333 328 330 331 329 328 326 326 326 327 325 326 324 324 323 322 321 320 319 317 316 316 316 315 315 315 315 315 313 313 313 314 315 316 314 314 313
Wind_Speed
3 2 2 4 2 2 2 3 3 4 1 3 1 4 8 4 6 9 7 5 3 7 3 6 9 14 15 14 15 16 15 14 13 10 10 11 11 8 10 12 12 12 12 10
3 7 5 4 3 1 5 4 2 5 2 1 5 3 4 2 6 7 4 5 6 6 3 4 6 10 13 14 14 12 16 13 14 14 10 8 7 7 9 10 11 10 10 10
12 1 9 1 3 8 4 4 7 3 7 5 2 3 4 4 1 3 4 6 6 4 5 5 7 7 12 13 14 20 20 17 18 17 13 11 11 10 8 8 8 7 10 10
8 2 6 8 8 3 5 4 6 13 8 3 2 4 5 2 1 4 6 9 7 3 3 3 8 8 9 12 15 21 23 22 20 17 15 15 13 10 9 8 9 11 12 11
9 5 7 6 6 6 3 1 9 6 4 3 3 4 2 1 4 8 5 8 8 9 5 7 5 8 8 12 14 17 18 11 12 15 15 13 11 11 11 10 10 12 13 13
5 0 3 4 4 6 14 10 10 5 2 4 3 4 6 3 3 10 12 11 5 7 6 7 6 7 8 5 9 13 11 8 8 12 12 8 6 8 7 9 10 12 13 14
3 9 3 4 4 4 7 6 3 3 4 4 2 3 10 3 3 8 9 4 2 9 10 10 9 10 8 5 3 5 6 4 9 8 1 3 7 9 8 9 10 15 15 12
9 8 7 6 8 3 8 5 4 5 5 1 2 6 3 2 1 4 10 10 11 11 9 10 15 16 16 13 8 4 1 1 3 4 1 4 5 4 4 6 9 12 13 12
6 3 1 3 2 1 5 5 3 5 1 3 2 5 10 6 4 6 10 12 11 11 10 12 15 14 21 18 14 10 11 12 10 10 10 11 11 11 9 6 4 7 10 15
2 4 2 4 2 9 3 7 4 1 4 5 3 5 7 9 11 10 10 11 12 10 10 11 13 14 18 16 12 12 13 14 12 11 11 11 12 11 10 10 11 12 13 12
6 1 5 2 1 3 5 4 5 4 2 2 3 4 3 8 13 15 12 12 12 10 9 10 11 13 12 11 10 9 10 10 10 10 10 10 11 10 9 8 8 10 10 11
6 2 3 2 4 1 1 2 6 5 5 1 3 5 1 5 9 12 13 13 13 12 10 9 10 10 10 9 9 8 8 9 9 9 9 9 9 9 8 8 9 11 12 12
10 5 3 5 4 3 4 4 1 5 2 7 4 3 2 1 9 11 13 13 13 13 11 9 9 7 7 9 7 6 5 6 6 7 7 7 6 7 8 9 10 11 12 13
7 5 8 8 2 1 5 6 6 4 4 5 6 5 5 5 12 14 15 15 14 13 12 10 9 8 7 7 5 3 3 3 5 6 5 6 7 9 9 10 10 11 11 12
7 6 5 2 1 2 2 6 10 5 2 5 4 5 5 10 16 18 16 15 16 15 14 12 11 10 9 8 5 3 0 3 5 5 6 8 9 9 11 12 13 12 11 11
1 3 5 4 2 5 4 5 10 7 4 10 8 9 5 4 10 14 17 18 17 16 16 13 12 12 9 7 6 4 1 2 2 3 3 6 9 9 10 10 11 10 11 12
4 7 6 5 1 4 5 12 11 5 5 5 6 1 4 5 14 17 18 19 20 18 15 12 11 11 9 8 5 3 2 0 1 2 4 6 7 9 11 11 10 10 12 13
7 6 0 4 5 6 2 2 4 10 7 12 6 3 5 5 10 13 15 17 17 15 14 12 12 10 10 8 5 3 1 1 2 4 6 7 7 9 10 11 12 11 12 12
3 3 4 4 6 2 2 4 5 7 5 11 13 7 6 5 7 5 11 15 16 15 18 17 14 12 9 6 4 2 1 1 2 4 5 5 6 8 9 11 12 12 12 12
6 4 0 3 4 7 1 3 3 4 4 1 6 10 12 11 7 4 13 14 14 19 20 19 16 13 9 6 4 1 1 2 3 5 6 7 7 7 9 10 11 12 11 11
2 2 4 4 4 3 3 3 7 5 2 3 4 8 12 7 2 6 13 13 19 21 20 17 15 11 8 4 2 1 2 4 5 7 7 7 8 8 8 10 9 10 11 11
5 5 3 3 3 5 5 5 4 3 3 2 5 6 9 5 10 12 13 16 18 19 18 15 12 8 6 3 1 1 1 3 4 4 5 6 7 6 7 8 9 9 12 12
3 2 1 4 1 2 1 2 2 1 3 5 9 10 10 12 11 13 13 13 16 17 15 12 9 7 5 4 3 2 2 3 3 3 5 7 7 6 6 8 9 8 11 11
2 3 2 2 4 3 3 2 2 3 4 8 11 12 12 13 13 11 12 11 13 14 13 10 8 6 5 6 5 3 3 3 3 4 6 7 8 9 8 9 6 6 8 10
1 5 3 3 3 4 4 4 4 6 9 12 11 10 10 14 12 12 11 11 12 12 10 9 7 6 6 6 5 3 2 2 3 4 5 6 6 8 8 7 6 3 7 9
4 3 2 1 1 2 0 8 8 12 14 13 13 9 9 9 12 12 9 12 12 12 11 9 7 7 6 6 5 4 1 1 3 3 3 5 6 7 7 8 7 6 6 7
Wind_Direction
60 273 44 65 98 112 248 281 277 116 131 106 154 200 200 197 208 196 189 169 231 261 260 212 216 218 220 213 219 224 237 237 222 224 225 229 241 255 266 268 278 295 296 277
223 253 151 124 124 52 276 312 125 107 81 178 184 211 252 192 222 222 182 161 201 239 204 158 156 194 207 213 218 230 232 238 233 231 233 234 239 247 262 269 268 285 298 287
229 178 148 350 349 327 311 284 185 157 122 87 168 236 241 179 221 188 151 139 178 167 202 172 138 146 185 191 193 223 223 223 228 225 233 237 253 261 267 278 282 298 307 302
225 174 237 287 295 263 300 305 186 152 174 196 338 282 249 243 343 146 135 165 176 161 113 136 139 119 160 184 199 216 216 216 220 225 227 230 234 252 253 272 290 308 306 307
213 224 239 255 239 186 314 218 142 144 110 186 171 265 260 306 186 131 107 132 142 146 112 106 112 123 131 172 193 212 213 193 218 232 242 247 254 253 264 282 289 295 292 291
177 140 240 215 171 196 149 107 92 89 69 255 84 262 278 229 162 111 63 155 140 171 155 128 119 123 109 128 206 222 216 193 212 225 247 269 326 306 306 297 301 301 289 284
215 238 229 173 220 141 180 181 125 159 200 268 87 231 264 272 223 124 106 110 226 155 170 131 125 97 85 103 196 250 259 232 234 257 188 9 340 316 283 289 301 302 293 270
198 199 196 164 223 167 184 220 219 238 227 198 191 237 248 318 306 122 115 110 124 147 142 129 106 102 95 88 89 67 49 242 92 153 234 293 299 311 291 295 305 307 299 306
161 210 176 24 64 298 155 198 50 116 83 265 196 269 274 209 228 157 121 118 132 150 152 119 110 102 101 94 88 87 86 79 71 74 94 95 86 75 57 42 349 330 341 338
179 177 56 142 136 62 235 129 156 165 192 238 236 273 255 215 216 176 153 149 149 153 129 110 106 106 94 97 96 88 80 76 69 59 46 38 37 37 28 9 0 347 337 330
163 266 151 198 38 165 149 170 69 110 324 266 289 274 187 248 208 186 169 156 154 151 132 120 116 98 97 93 86 73 64 58 50 41 29 16 11 9 7 356 341 335 333 333
180 132 245 281 143 86 265 179 188 234 186 192 301 278 192 271 205 183 169 159 153 151 143 132 119 115 105 89 81 65 56 46 36 28 28 23 7 0 359 352 342 327 322 321
169 208 147 150 151 167 224 156 158 114 128 188 210 280 17 250 184 181 173 165 160 153 151 146 141 135 133 122 109 91 67 56 29 12 4 4 2 354 348 338 332 328 324 320
154 155 202 214 165 120 175 181 190 263 201 152 232 295 258 205 189 179 178 175 169 168 164 161 160 161 149 128 117 115 84 36 13 354 354 356 353 345 340 334 327 321 318 314
198 185 174 93 187 194 173 190 177 207 167 267 358 225 300 223 197 189 181 172 173 174 175 175 171 170 161 153 151 167 67 5 1 356 357 351 346 344 343 341 335 328 326 315
137 162 155 152 161 182 166 167 185 218 226 257 260 268 250 286 185 185 182 179 183 187 183 180 171 173 167 163 181 190 220 2 26 1 357 345 336 336 336 336 335 333 331 329
150 147 178 186 203 188 209 206 193 198 198 227 243 339 182 182 191 188 190 190 186 186 184 178 175 171 157 175 184 215 246 155 11 342 335 337 339 338 341 339 339 337 336 332
141 130 39 131 184 201 67 17 252 228 241 218 254 210 204 256 209 191 197 195 188 179 170 166 162 155 159 168 182 198 227 312 338 355 346 343 345 347 345 345 341 334 331 327
85 144 119 161 210 331 243 185 175 194 224 223 235 184 160 138 150 193 197 197 188 174 163 157 157 156 161 167 173 153 83 337 331 338 342 341 349 357 349 345 343 342 337 333
74 73 286 161 208 237 207 147 202 201 254 19 217 186 161 163 196 193 169 164 156 155 147 149 150 154 164 170 156 131 190 267 306 336 338 350 356 351 346 338 332 331 331 327
136 67 211 170 217 257 251 226 176 197 21 50 198 182 176 192 2 118 143 142 146 143 142 145 148 159 161 141 82 352 342 352 343 334 341 350 351 343 338 330 331 333 342 349
194 175 172 152 187 220 167 151 212 70 96 122 134 163 156 111 119 134 136 137 139 139 141 146 151 155 144 143 158 312 326 343 330 328 342 351 347 346 336 333 347 8 12 11
217 246 263 227 207 26 258 287 7 212 139 155 144 147 142 133 135 138 139 140 143 147 148 156 158 150 166 185 200 230 250 281 299 332 356 359 355 353 357 0 3 9 10 4
189 170 226 219 176 248 280 231 200 190 132 140 142 145 148 142 146 143 145 146 150 154 155 158 159 178 188 198 197 226 272 272 311 336 350 356 0 358 357 4 10 19 21 4
43 167 169 249 258 272 233 223 152 129 127 130 130 140 142 144 155 156 157 159 161 158 159 170 181 190 194 191 206 226 308 292 323 339 342 342 346 357 353 352 356 339 29 29
188 171 216 312 350 324 140 161 149 147 145 143 133 130 141 154 155 158 157 162 163 169 174 182 192 198 195 198 212 226 258 306 330 325 335 358 356 0 357 359 2 8 355 8